STARLINK-36254

Last updated on Sun Apr 12 2026 00:02:08 GMT+0000 (Coordinated Universal Time)

1 68338U 26059T 26101.55352977 .00061781 00000+0 31429-3 0 9997 2 68338 53.1576 198.0320 0001306 80.7922 279.3248 15.80874702 3176
UTC large
Height (km)
Speed (km/s)
/
Latitude / Longitude
Inclination (degrees)
Orbital Period (minutes)
Azimuth
Elevation
Range (km)
Doppler Factor

Next 0 passes for location: London (51.5072 / 0.1276)

Sorry there are no passes over London.
STARLINK-36254